Location: Elstree
(51.6403°N, 0.2969°W)
Time: 19:52:07
(UTC+00:00)

Cosmos 2084 Rocket - Pass Details

Date: 03 March 2021
Orbit: 527 x 653 km, 62.8° (Epoch: 15 April)

Event Time Altitude Azimuth Distance (km) Brightness Sun altitude
Rises 18:21:47 0° 313° (NW) 2,787 7.7 -6.5°
Reaches altitude 10° 18:23:59 10° 313° (NW) 1,906 6.8 -6.8°
Maximum altitude 18:28:19 86° 225° (SW) 607 3.6 -7.5°
Drops below altitude 10° 18:32:47 10° 137° (SE) 1,975 5.7 -8.2°
Enters shadow 18:35:00 - 137° (SE) 2,855 6.6 -8.5°
